Osceola Municipal, IA

2:40 PM CST on January 23, 2018 (GMT -0600)
Osceola Municipal

Weather History for KI75 - March, 2013

Change the Weather History Date:

Sunday, March 10, 2013

  Actual Average (KCNC) Record (KCNC)
Temperature  
Mean Temperature 36 °F -  
Max Temperature 44 °F 47 °F 75 °F (1955)
Min Temperature 29 °F 24 °F 0 °F (1965)
Degree Days  
Heating Degree Days 28    
Moisture  
Dew Point 34 °F    
Average Humidity 97    
Maximum Humidity 99    
Minimum Humidity 92    
Precipitation  
Precipitation 0.21 in - - ()
Sea Level Pressure  
Sea Level Pressure 29.68 in    
Wind  
Wind Speed 9 mph (NNW)    
Max Wind Speed 18 mph    
Max Gust Speed 24 mph    
Visibility 4 miles    
Events Rain , Snow    
Averages and records for this station are not official NWS values.
T = Trace of Precipitation, MM = Missing Value Source: NWS Daily Summary

Daily Weather History Graph

Daily Weather History Graph

Search for Another Location

Airport or City:

Trip Planner

Search our weather history database for the weather conditions in past years. The results will help you decide how hot, cold, wet, or windy it might be!

Date:

Astronomy

Mar. 10, 2013 Rise Set
Actual Time 7:34 AM CDT 7:16 PM CDT
Civil Twilight 7:06 AM CDT 7:43 PM CDT
Nautical Twilight 6:34 AM CDT 8:15 PM CDT
Astronomical Twilight 6:02 AM CDT 8:47 PM CDT
Moon 6:34 AM CDT (3/10) 6:24 PM CDT (3/10)
Length of Visible Light 12h 36m
Length of Day
11h 42m
Waning Crescent, 2% of the Moon is Illuminated
Mar 10
Waning Crescent
Mar 11
New
Mar 19
First Quarter
Mar 27
Full
Apr 2
Last Quarter

Hourly Weather History & Observations

Time (CDT) Temp. Windchill Dew Point Humidity Pressure Visibility Wind Dir Wind Speed Gust Speed Precip Events Conditions
12:15 AM 43.0 °F - 42.1 °F 97% 29.66 in 0.2 mi Calm Calm - 0.02 in   Unknown
12:35 AM 44.2 °F - 43.2 °F 96% 29.67 in 0.5 mi Calm Calm - 0.09 in Rain Light Rain
12:55 AM 44.1 °F - 43.0 °F 96% 29.66 in 0.5 mi Calm Calm - 0.10 in Rain Light Rain
1:15 AM 43.5 °F - 42.4 °F 96% 29.65 in 0.2 mi Calm Calm - N/A   Unknown
1:35 AM 42.6 °F - 41.5 °F 96% 29.64 in 0.2 mi Calm Calm - 0.04 in Rain Rain
1:55 AM 42.1 °F - 41.0 °F 96% 29.63 in 0.2 mi Calm Calm - 0.04 in   Unknown
3:15 AM 41.2 °F 37.3 °F 40.3 °F 97% 29.61 in 0.2 mi North 5.8 mph - N/A   Unknown
3:35 AM 40.1 °F 35.3 °F 39.2 °F 97% 29.61 in 0.2 mi North 6.9 mph - N/A   Unknown
3:55 AM 39.6 °F 33.5 °F 38.7 °F 97% 29.63 in 0.2 mi WNW 9.2 mph - N/A   Unknown
4:15 AM 38.7 °F 32.9 °F 37.8 °F 97% 29.62 in 0.2 mi NNW 8.1 mph - N/A   Unknown
4:35 AM 38.8 °F 33.2 °F 37.9 °F 97% 29.63 in 0.8 mi NNW 8.1 mph - N/A   Unknown
4:55 AM 38.3 °F 31.4 °F 37.6 °F 97% 29.65 in 2.0 mi NNW 10.4 mph - N/A Rain Light Rain
5:15 AM 38.1 °F 30.7 °F 37.4 °F 97% 29.62 in 2.0 mi NNW 11.5 mph - N/A   Drizzle
5:35 AM 37.8 °F 29.8 °F 37.0 °F 97% 29.62 in 2.5 mi North 12.7 mph - N/A   Overcast
5:55 AM 37.4 °F 29.3 °F 36.7 °F 97% 29.63 in 2.5 mi NNW 12.7 mph 17.3 mph N/A   Overcast
6:15 AM 37.0 °F 30.4 °F 36.5 °F 98% 29.67 in 2.5 mi NNW 9.2 mph - N/A   Overcast
7:35 AM 34.7 °F 24.3 °F 34.0 °F 97% 29.69 in 2.0 mi NNW 17.3 mph 21.9 mph N/A   Overcast
7:55 AM 34.3 °F 23.9 °F 33.8 °F 98% 29.66 in 2.0 mi North 17.3 mph - N/A   Overcast
8:15 AM 34.2 °F 23.6 °F 33.8 °F 99% 29.67 in 2.0 mi North 17.3 mph 23.0 mph N/A   Overcast
8:35 AM 34.2 °F 24.0 °F 33.8 °F 99% 29.68 in 1.5 mi North 16.1 mph 23.0 mph N/A   Overcast
8:55 AM 34.2 °F 24.4 °F 33.8 °F 99% 29.72 in 1.8 mi NNW 15.0 mph - N/A   Overcast
9:15 AM 34.2 °F 24.4 °F 33.8 °F 99% 29.71 in 1.8 mi North 15.0 mph 20.7 mph N/A   Overcast
9:35 AM 34.2 °F 24.0 °F 33.8 °F 99% 29.71 in 2.0 mi North 16.1 mph 19.6 mph N/A Rain Light Rain
9:55 AM 34.3 °F 25.0 °F 33.8 °F 98% 29.70 in 2.0 mi North 13.8 mph 19.6 mph N/A Rain Light Rain
10:15 AM 34.7 °F 25.1 °F 34.0 °F 97% 29.71 in 5.0 mi North 15.0 mph 20.7 mph N/A Rain Light Rain
10:35 AM 34.7 °F 25.9 °F 34.0 °F 97% 29.74 in 5.0 mi North 12.7 mph 17.3 mph N/A   Overcast
10:55 AM 34.7 °F 25.9 °F 34.0 °F 97% 29.71 in 7.0 mi North 12.7 mph 21.9 mph N/A   Overcast
11:15 AM 34.7 °F 24.3 °F 34.0 °F 97% 29.70 in 5.0 mi North 17.3 mph 21.9 mph N/A   Overcast
11:35 AM 34.5 °F 24.5 °F 33.8 °F 97% 29.69 in 7.0 mi North 16.1 mph 20.7 mph N/A   Overcast
11:55 AM 34.3 °F 25.0 °F 33.8 °F 98% 29.71 in 7.0 mi North 13.8 mph 19.6 mph N/A   Overcast
12:15 PM 34.3 °F 25.9 °F 33.8 °F 98% 29.70 in 7.0 mi North 11.5 mph - N/A   Light Drizzle
12:35 PM 34.3 °F 25.9 °F 33.8 °F 98% 29.70 in 10.0 mi North 11.5 mph 17.3 mph N/A Rain Light Rain
12:55 PM 34.3 °F 25.9 °F 33.8 °F 98% 29.70 in 5.0 mi North 11.5 mph 18.4 mph N/A Rain Light Rain
1:15 PM 34.7 °F 25.1 °F 33.8 °F 97% 29.69 in 4.0 mi North 15.0 mph 19.6 mph 0.01 in Rain Rain
1:35 PM 34.3 °F 25.0 °F 33.4 °F 97% 29.65 in 5.0 mi North 13.8 mph 19.6 mph 0.02 in Rain Rain
1:55 PM 34.7 °F 25.1 °F 33.8 °F 97% 29.65 in 7.0 mi North 15.0 mph 20.7 mph 0.03 in Rain Light Rain
2:15 PM 34.7 °F 26.4 °F 33.8 °F 97% 29.65 in 10.0 mi North 11.5 mph 16.1 mph N/A   Drizzle
2:35 PM 34.9 °F 26.2 °F 34.0 °F 97% 29.65 in 7.0 mi North 12.7 mph - N/A Rain Light Rain
2:55 PM 34.9 °F 26.2 °F 33.8 °F 96% 29.65 in 7.0 mi North 12.7 mph - 0.01 in Rain Light Rain
3:15 PM 34.9 °F 26.6 °F 33.8 °F 96% 29.65 in 5.0 mi NNW 11.5 mph - 0.01 in Rain Light Rain
3:35 PM 34.9 °F 26.2 °F 33.8 °F 96% 29.65 in 7.0 mi NNW 12.7 mph - 0.02 in Rain Light Rain
3:55 PM 33.8 °F 25.3 °F 32.5 °F 95% 29.66 in 3.0 mi NW 11.5 mph - 0.03 in Snow Light Snow
4:15 PM 32.9 °F 23.7 °F 32.0 °F 96% 29.66 in 4.0 mi NNW 12.7 mph - N/A Snow Light Snow
4:35 PM 32.5 °F 23.2 °F 32.0 °F 98% 29.67 in 4.0 mi NW 12.7 mph - N/A Rain Light Rain
4:55 PM 32.7 °F 23.0 °F 32.0 °F 97% 29.67 in 5.0 mi NW 13.8 mph - N/A Snow Light Snow
5:15 PM 32.5 °F 21.9 °F 32.0 °F 98% 29.67 in 4.0 mi NNW 16.1 mph 19.6 mph N/A Snow Light Snow
5:35 PM 32.7 °F 23.0 °F 32.0 °F 97% 29.67 in 5.0 mi NW 13.8 mph 21.9 mph N/A   Overcast
5:55 PM 32.5 °F 21.9 °F 32.0 °F 98% 29.67 in 5.0 mi NNW 16.1 mph 23.0 mph N/A Snow Light Snow
6:15 PM 32.4 °F 23.0 °F 31.8 °F 98% 29.68 in 5.0 mi NW 12.7 mph 19.6 mph N/A Snow Light Snow
6:35 PM 32.2 °F 21.8 °F 31.6 °F 98% 29.68 in 1.5 mi NW 15.0 mph 20.7 mph N/A Snow Light Snow
6:55 PM 32.0 °F 22.1 °F 31.5 °F 98% 29.68 in 1.8 mi NW 13.8 mph - N/A Snow Light Snow
7:15 PM 32.0 °F 23.6 °F 31.5 °F 98% 29.69 in 3.0 mi NW 10.4 mph - N/A Snow Light Snow
7:35 PM 32.0 °F 22.1 °F 31.5 °F 98% 29.69 in 3.0 mi NW 13.8 mph - N/A Snow Light Snow
7:55 PM 32.0 °F 22.1 °F 31.3 °F 97% 29.69 in 2.5 mi NW 13.8 mph - N/A   Overcast
8:15 PM 32.0 °F 23.0 °F 31.1 °F 96% 29.71 in 2.0 mi WNW 11.5 mph - N/A Snow Light Snow
8:35 PM 32.0 °F 21.6 °F 31.1 °F 96% 29.70 in 2.5 mi NW 15.0 mph - N/A Snow Snow
8:55 PM 31.8 °F 21.4 °F 30.9 °F 96% 29.71 in 3.0 mi NW 15.0 mph - N/A   Overcast
9:15 PM 31.5 °F 20.9 °F 30.2 °F 95% 29.71 in 3.0 mi NW 15.0 mph 21.9 mph N/A   Overcast
9:35 PM 30.9 °F 20.2 °F 29.5 °F 94% 29.71 in 3.0 mi NW 15.0 mph 19.6 mph N/A   Overcast
9:55 PM 30.7 °F 20.0 °F 29.3 °F 94% 29.71 in 2.5 mi NW 15.0 mph 20.7 mph N/A   Overcast
10:15 PM 30.7 °F 19.6 °F 29.3 °F 94% 29.71 in 3.0 mi NW 16.1 mph 21.9 mph N/A Snow Light Snow
10:35 PM 30.6 °F 19.8 °F 29.1 °F 94% 29.72 in 3.0 mi NW 15.0 mph 21.9 mph N/A Snow Light Snow
10:55 PM 30.2 °F 19.3 °F 28.8 °F 94% 29.73 in 3.0 mi NW 15.0 mph 21.9 mph N/A Snow Light Snow
11:15 PM 30.2 °F 18.5 °F 28.8 °F 94% 29.74 in 4.0 mi NW 17.3 mph 23.0 mph N/A Snow Light Snow
11:35 PM 30.2 °F 18.9 °F 28.4 °F 93% 29.74 in 4.0 mi NW 16.1 mph 20.7 mph N/A Snow Light Snow
11:55 PM 30.0 °F 18.3 °F 28.0 °F 92% 29.74 in 7.0 mi NW 17.3 mph 21.9 mph N/A   Overcast
12:15 AM 29.8 °F 17.7 °F 27.9 °F 92% 29.74 in 7.0 mi NW 18.4 mph 24.2 mph N/A   Overcast
12:35 AM 29.7 °F 18.2 °F 27.5 °F 92% 29.74 in 7.0 mi NW 16.1 mph 24.2 mph N/A   Overcast
12:55 AM 29.3 °F 17.7 °F 27.1 °F 92% 29.74 in 7.0 mi WNW 16.1 mph - N/A   Overcast